Content
SEND FEEDBACK

Daily
Averages
Monthly
Summary
United States of America

HENEFER, UTAH


Home > North America > United States > Utah
Elevation: 5611 feet     Latitude: 40 55N     Longitude: 111 24W

WEATHER
 
SELECT A DAY
Number of Records: 106,863;   Date Range: 2/4/02 - 12/18/14
 
SHARE

PRINT THIS DATA

[ ← Previous Day ]
WEATHER ALMANAC - JULY 12, 2014
[ Next Day → ]
[ °C ]   °F
Weather ElementAverageHighLow
Temperature70.7 °F89.6 °F (1:15 pm)53.6 °F (12:35 am)
Dewpoint51.5 °F55.4 °F (11:15 am)42.8 °F (12:55 pm)
Humidity58 %94 % (12:15 am)20 % (4:15 pm)
Barometer30.25 in30.32 in (6:15 am)30.20 in (12:15 pm)
Wind Speed2.4 mph11.5 mph (4:35 pm)
Wind Gust16.1 mph (5:35 pm)
Weather ElementAverage
Visibility10 mi
Wind DirectionE (90.7 °)

Weather ElementTotal
Precipitation---
Cooling Degree Days6.6 (Base 65)
Growing Degree Days21.6 (Base 50)
Averaged from 72 records on July 12, 2014
WEATHER CONDITIONS BREAKOUT
WIND DIRECTION BREAKOUT
WEATHER BY HOUR - JULY 12, 2014
[ °C ]   °F
Local TimeTemperatureDewpointHumidityBarometerVisibilityWind DirectionWind SpeedGust SpeedPrecipitationEventsConditions
12:15 AM59.0 °F53.6 °F82 %30.21 in10.0 miCalmClear
12:35 AM59.0 °F53.6 °F82 %30.21 in10.0 miESE (120°)3.5 mphClear
12:55 AM59.0 °F53.6 °F82 %30.21 in10.0 miCalmClear
1:15 AM57.2 °F53.6 °F88 %30.21 in10.0 miCalmClear
1:35 AM55.4 °F51.8 °F88 %30.22 in10.0 miCalmClear
1:55 AM55.4 °F53.6 °F94 %30.22 in10.0 miCalmClear
2:15 AM55.4 °F53.6 °F94 %30.23 in10.0 miSE (130°)3.5 mphClear
2:35 AM55.4 °F51.8 °F88 %30.23 in10.0 miCalmClear
2:55 AM55.4 °F51.8 °F88 %30.24 in10.0 miCalmClear
3:15 AM53.6 °F51.8 °F94 %30.24 in10.0 miCalmClear
3:35 AM53.6 °F51.8 °F94 %30.24 in10.0 miCalmClear
3:55 AM53.6 °F51.8 °F94 %30.24 in10.0 miCalmClear
4:15 AM53.6 °F51.8 °F94 %30.25 in10.0 miCalmClear
4:35 AM53.6 °F51.8 °F94 %30.25 in10.0 miCalmClear
4:55 AM53.6 °F50.0 °F88 %30.25 in10.0 miCalmClear
5:15 AM53.6 °F51.8 °F94 %30.27 in10.0 miCalmClear
5:35 AM53.6 °F51.8 °F94 %30.27 in10.0 miCalmClear
5:55 AM53.6 °F51.8 °F94 %30.28 in10.0 miCalmClear
6:15 AM53.6 °F51.8 °F94 %30.28 in10.0 miCalmClear
6:35 AM53.6 °F50.0 °F88 %30.28 in10.0 miCalmClear
6:55 AM55.4 °F51.8 °F88 %30.30 in10.0 miCalmClear
7:15 AM57.2 °F53.6 °F88 %30.30 in10.0 miCalmClear
7:35 AM59.0 °F53.6 °F82 %30.30 in10.0 miCalmClear
7:55 AM60.8 °F53.6 °F77 %30.30 in10.0 miCalmClear
8:15 AM60.8 °F53.6 °F77 %30.30 in10.0 miCalmClear
8:35 AM62.6 °F53.6 °F72 %30.31 in10.0 miCalmClear
8:55 AM62.6 °F53.6 °F72 %30.31 in10.0 miCalmClear
9:15 AM66.2 °F53.6 °F64 %30.31 in10.0 miCalmClear
9:35 AM68.0 °F53.6 °F60 %30.31 in10.0 miCalmClear
9:55 AM69.8 °F53.6 °F56 %30.32 in10.0 miCalmClear
10:15 AM69.8 °F53.6 °F56 %30.31 in10.0 miCalmClear
10:35 AM73.4 °F53.6 °F50 %30.30 in10.0 miNW (320°)3.5 mphClear
10:55 AM73.4 °F53.6 °F50 %30.30 in10.0 miCalmClear
11:15 AM75.2 °F53.6 °F47 %30.30 in10.0 miNorth (10°)3.5 mphClear
11:35 AM78.8 °F53.6 °F42 %30.30 in10.0 miCalmClear
11:55 AM78.8 °F53.6 °F42 %30.29 in10.0 miSouth (170°)3.5 mphClear
12:15 PM80.6 °F51.8 °F37 %30.29 in10.0 miCalmClear
12:35 PM82.4 °F51.8 °F35 %30.28 in10.0 miNorth (360°)6.9 mphClear
12:55 PM84.2 °F50.0 °F30 %30.27 in10.0 miNorth (360°)3.5 mphClear
1:15 PM86.0 °F50.0 °F29 %30.27 in10.0 miNNE (30°)3.5 mphClear
1:35 PM86.0 °F48.2 °F27 %30.27 in10.0 miNorth (360°)5.8 mphClear
1:55 PM86.0 °F48.2 °F27 %30.26 in10.0 miNorth (360°)4.6 mphClear
2:15 PM87.8 °F48.2 °F25 %30.26 in10.0 miNNE (20°)6.9 mphClear
2:35 PM87.8 °F44.6 °F22 %30.25 in10.0 miNorth (350°)9.2 mphClear
2:55 PM89.6 °F44.6 °F21 %30.25 in10.0 miNNE (30°)9.2 mphClear
3:15 PM89.6 °F44.6 °F21 %30.24 in10.0 miNorth (360°)10.4 mphClear
3:35 PM89.6 °F42.8 °F20 %30.23 in10.0 miNNE (20°)11.5 mph16.1 mphClear
3:55 PM89.6 °F44.6 °F21 %30.23 in10.0 miNorth (10°)10.4 mphClear
4:15 PM87.8 °F48.2 °F25 %30.23 in10.0 miNNW (340°)6.9 mphScattered Clouds
4:35 PM87.8 °F50.0 °F27 %30.23 in10.0 miWSW (250°)6.9 mphClear
4:55 PM86.0 °F50.0 °F29 %30.23 in10.0 miWest (260°)6.9 mphScattered Clouds
5:15 PM89.6 °F48.2 °F24 %30.22 in10.0 miWest (270°)4.6 mphScattered Clouds
5:35 PM86.0 °F46.4 °F25 %30.22 in10.0 miWest (260°)5.8 mphClear
5:55 PM84.2 °F51.8 °F33 %30.22 in10.0 miWest (260°)4.6 mphScattered Clouds
6:15 PM87.8 °F46.4 °F24 %30.21 in10.0 miWest (270°)5.8 mphScattered Clouds
6:35 PM87.8 °F48.2 °F25 %30.21 in10.0 miWSW (250°)4.6 mphClear
6:55 PM87.8 °F46.4 °F24 %30.20 in10.0 miCalmClear
7:15 PM86.0 °F51.8 °F31 %30.21 in10.0 miCalmClear
7:35 PM86.0 °F51.8 °F31 %30.21 in10.0 miNW (310°)3.5 mphClear
7:55 PM84.2 °F51.8 °F33 %30.22 in10.0 miNW (310°)3.5 mphClear
8:15 PM82.4 °F53.6 °F37 %30.22 in10.0 miCalmClear
8:35 PM78.8 °F53.6 °F42 %30.22 in10.0 miNorth (360°)3.5 mphClear
8:55 PM73.4 °F55.4 °F53 %30.23 in10.0 miCalmClear
9:15 PM71.6 °F53.6 °F53 %30.23 in10.0 miCalmClear
9:35 PM71.6 °F53.6 °F53 %30.24 in10.0 miSSE (150°)3.5 mphClear
9:55 PM68.0 °F55.4 °F64 %30.24 in10.0 miESE (120°)4.6 mphClear
10:15 PM66.2 °F53.6 °F64 %30.25 in10.0 miESE (110°)8.1 mphClear
10:35 PM66.2 °F53.6 °F64 %30.25 in10.0 miCalmClear
10:55 PM68.0 °F53.6 °F60 %30.26 in10.0 miCalmClear
11:15 PM64.4 °F53.6 °F68 %30.27 in10.0 miCalmClear
11:35 PM64.4 °F53.6 °F68 %30.27 in10.0 miCalmClear
11:55 PM62.6 °F53.6 °F72 %30.27 in10.0 miCalmClear
Hourly data recorded from K36U, located miles away from Henefer, Utah







STORIES FROM OUR PARTNERS